User: anonymous   Login
Location: Cz?stochówka
(50.8142°N, 19.0915°E)
Time: 11:23:28
(UTC+00:00)
Language:

Meteor 2-10 Rocket - Orbit

View from above orbital plane
View from above orbital plane
View from above satellite
View from above satellite

Ground track
Ground track

The orbit is defined by the following mean orbital elements,

1 14453U          26071.16597191 +.00000000 +00000-0 +55490-4 0 00002
2 14453  81.1663 136.0142 0103753 191.6014 168.2774 14.25440243    06
Epoch (UTC): 12 March 2026 03:58:59
Eccentricity: 0.0103753
inclination: 81.1663°
perigee height: 732 km
apogee height: 882 km
right ascension of ascending node: 136.0142°
argument of perigee: 191.6014°
revolutions per day: 14.25440243
mean anomaly at epoch: 168.2774°

The dashed part of the orbit path shows where the satellite is in the earth's shadow,  

DLR